Printer-friendly version
Follow the MPC on Twitter Follow the MPC on Facebook The MPC blog
Minor Planet Center

MPEC 2010-N59 : 2004 RR109

The following Minor Planet Electronic Circular may be linked-to from your own Web pages, but must not otherwise be redistributed electronically.

A form allowing access to any MPEC is at the bottom of this page.


Read MPEC 2010-N58 Read MPEC 2010-N60


M.P.E.C. 2010-N59                                Issued 2010 July 14, 14:48 UT

     The Minor Planet Electronic Circulars contain information on unusual
         minor planets and routine data on comets.  They are published
   on behalf of Commission 20 of the International Astronomical Union by the
          Minor Planet Center, Smithsonian Astrophysical Observatory,
                          Cambridge, MA 02138, U.S.A.

             Prepared using the Tamkin Foundation Computer Network

                              MPC@CFA.HARVARD.EDU
       URL http://www.minorplanetcenter.org/iau/mpc.html  ISSN 1523-6714

                                  2004 RR109

                           Revision to MPEC 2004-R60

Additional Observations:
     K04RA9R  S2010 07 06.23922 01 10 03.49 -07 34 06.3          21   R EN059C51
     K04RA9R  s2010 07 06.23922 1 + 6734.7612 + 1197.6285 -  972.2675   EN059C51
     K04RA9R  S2010 07 06.23935 01 10 03.50 -07 34 05.8                 EN059C51
     K04RA9R  s2010 07 06.23935 1 + 6724.8157 + 1184.6797 - 1054.2261   EN059C51
     K04RA9R  S2010 07 06.50383 01 10 03.17 -07 30 21.4                 EN059C51
     K04RA9R  s2010 07 06.50383 1 + 6729.2825 + 1228.4755 -  970.5683   EN059C51
     K04RA9R  S2010 07 06.57005 01 10 03.07 -07 29 24.8                 EN059C51
     K04RA9R  s2010 07 06.57005 1 + 6723.2480 + 1229.7781 - 1010.2108   EN059C51
     K04RA9R  S2010 07 06.63614 01 10 02.91 -07 28 29.6                 EN059C51
     K04RA9R  s2010 07 06.63614 1 + 6726.6838 + 1243.9017 -  968.6738   EN059C51
     K04RA9R  S2010 07 06.70235 01 10 02.76 -07 27 30.5                 EN059C51
     K04RA9R  s2010 07 06.70235 1 + 6720.4259 + 1245.0435 - 1009.6367   EN059C51
     K04RA9R  S2010 07 06.76844 01 10 02.55 -07 26 33.9                 EN059C51
     K04RA9R  s2010 07 06.76844 1 + 6723.6838 + 1259.1821 -  968.8927   EN059C51
     K04RA9R  S2010 07 06.83465 01 10 02.36 -07 25 36.7                 EN059C51
     K04RA9R  s2010 07 06.83465 1 + 6717.4251 + 1260.2125 - 1010.1970   EN059C51
     K04RA9R  C2010 07 13.65976 01 08 57.77 -05 49 00.6          21.0 R EN059474
     K04RA9R  C2010 07 13.66810 01 08 57.63 -05 48 53.9          21.1 R EN059474
     K04RA9R  C2010 07 13.67635 01 08 57.49 -05 48 47.0          21.2 R EN059474
     K04RA9R  C2010 07 13.68522 01 08 57.39 -05 48 40.5                 EN059474
     K04RA9R KC2010 07 14.33914 01 08 46.31 -05 39 39.4          22.1 V EN059H21
     K04RA9R KC2010 07 14.34492 01 08 46.18 -05 39 34.6          22.2 V EN059H21
     K04RA9R KC2010 07 14.36228 01 08 45.83 -05 39 20.9          21.5 V EN059H21
     K04RA9R KC2010 07 14.37191 01 08 45.63 -05 39 12.9          21.8 V EN059H21
     K04RA9R KC2010 07 14.37577 01 08 45.55 -05 39 09.7          21.8 V EN059H21

Observer details:
474 Mount John Observatory, Lake Tekapo.  Observers A. C. Gilmore,
    P. M. Kilmartin.  Measurer P. M. Kilmartin.  1.0-m f/7.7 reflector + CCD.
C51 WISE.  Measurers A. Mainzer, E. Wright, J. Bauer, T. Grav, J. Dailey, J.
    Masiero, R. Cutri, R. McMillan, R. Walker.
    (http://wise.ssl.berkeley.edu/mission_sci.html)
H21 Astronomical Research Observatory, Westfield.  Observer R. Holmes.  0.81-m
    f/4.5 astrograph + CCD.

Orbital elements:
2004 RR109
Epoch 2010 July 23.0 TT = JDT 2455400.5                 MPC
M  26.15122              (2000.0)            P               Q
n   0.16612070     Peri.  267.79296     -0.12562558     +0.98592603
a   3.2773303      Node   351.90363     -0.24802667     -0.13887153
e   0.5526623      Incl.   51.55731     -0.96057326     -0.09308367
P   5.93           H   17.5           G   0.15           U   3
Residuals in seconds of arc
040910 691  0.0   0.3-    040912 651  0.2-  0.4+    040917 246  0.4-  1.6+
040910 691  0.2-  0.2-    040912 651  0.9-  0.2+    040923 691  0.1-  0.0
040910 691  0.1+  0.1-    040912 651  0.6-  0.2+    040923 691  0.2+  0.2-
040910 246  0.8-  0.1+    040912 291  0.8+  0.4-    040923 691  0.1+  0.2-
040910 246  0.8+  1.0+    040912 291  0.1+  0.2+    100706 C51 (3.3-  3.5+)
040910 246  0.1+  0.9+    040912 291  0.1-  0.2+    100706 C51 (3.1-  3.9+)
040910 246  0.1-  0.7+    040912 671  0.6-  0.7-    100706 C51  0.2-  0.0
040910 246  0.4+  0.0     040912 671  0.1-  0.1+    100706 C51  0.6+  0.6-
040910 246  0.2+  0.1-    040912 671  0.1-  0.1+    100706 C51 (0.6+  2.3-)
040911 673  1.3-  1.0+    040912 671  0.3+  0.0     100706 C51  0.9+  0.3-
040911 673  1.2-  0.6+    040912 185  1.0+  0.3+    100706 C51  0.4+  0.7-
040911 673  0.5+  0.2-    040912 185  1.0+  0.0     100706 C51  0.3+  0.5-
040911 673  0.7+  0.1-    040913 246  0.9+  0.2-    100713 474  0.5-  0.3+
040911 291  0.1+  0.3+    040913 246  0.3+  0.3+    100713 474  0.4-  0.0
040911 291  0.2+  0.2+    040913 246  0.8+  0.3+    100713 474  0.3-  0.1+
040911 291  0.9-  1.9-    040913 246  0.5+  0.7+    100713 474  0.6+  0.8-
040911 246  0.7-  0.5+    040917 246  0.3-  0.3-    100714 H21  0.3+  1.0+
040911 246  1.3+  1.4+    040917 246  0.8+  0.1+    100714 H21  0.0   1.0+
040912 G90  0.2-  0.3+    040917 246  0.2-  0.2-    100714 H21  0.4-  0.2+
040912 G90  0.0   0.4+    040917 246  1.0-  0.5+    100714 H21  0.6-  0.2+
040912 G90  0.6-  0.1-    040917 246  0.7-  0.1+    100714 H21  0.7-  0.2+

Ephemeris:
2004 RR109               a,e,i = 3.28, 0.55, 52                  q = 1.4661
Date    TT    R. A. (2000) Decl.     Delta      r     Elong.  Phase     V
2010 07 13    01 09.13   -05 58.3    1.685    2.066    96.6    29.3    21.5
2010 07 23    01 04.86   -03 41.2    1.609    2.128   106.2    27.3    21.4
2010 08 02    00 56.78   -01 29.4    1.538    2.191   116.8    24.4    21.3
2010 08 12    00 44.64   +00 36.3    1.479    2.254   128.5    20.6    21.1
2010 08 22    00 28.60   +02 33.6    1.441    2.317   141.1    15.9    21.0
2010 09 01    00 09.51   +04 18.8    1.430    2.380   154.3    10.6    20.8
2010 09 11    23 48.85   +05 47.5    1.452    2.443   166.6     5.5    20.7
2010 09 21    23 28.61   +06 57.8    1.510    2.505   170.2     3.9    20.7
2010 10 01    23 10.61   +07 50.7    1.602    2.567   160.2     7.6    21.1
2010 10 11    22 56.03   +08 30.5    1.727    2.628   148.2    11.5    21.5
2010 10 21    22 45.38   +09 02.7    1.877    2.689   136.6    14.7    21.8

Gareth V. Williams           (C) Copyright 2010 MPC           M.P.E.C. 2010-N59

Read MPEC 2010-N58 Read MPEC 2010-N60


MPEC number:

Enter an MPEC number in one of the following forms:

  • 1997-B01 (the full form)
  • J97B01 (the packed version of the full form)
  • B01 (the abbreviated form)

Valid HTML 4.01!